Location: Aiyekoto
(8.4333°N, 4.3667°E)
Time: 12:15:03
(UTC+00:00)

ADEOS - Pass Details

Date: 07 October 2020
Orbit: 792 x 794 km, 98.9° (Epoch: 27 October)

Event Time Altitude Azimuth Distance (km) Brightness Sun altitude
Rises 03:16:06 0° 28° (NNE) 3,280 7.1 -34.0°
Reaches altitude 10° 03:18:37 10° 37° (NE) 2,352 6.4 -33.3°
Maximum altitude 03:23:18 35° 102° (ESE) 1,268 5.0 -32.2°
Drops below altitude 10° 03:27:59 10° 166° (SSE) 2,355 6.2 -31.0°
Sets 03:30:30 0° 175° (S) 3,285 6.9 -30.4°
